Location: Eschertshofen
(49.3064°N, 11.5756°E)
Time: 17:13:53
(UTC+00:00)

COSMOS 2251 DEB - Visible Passes

Search period start: 12 April 2021 00:00
Search period end: 22 April 2021 00:00
Orbit: 697 x 715 km, 74.0° (Epoch: 11 April)

Date Brightness Start Highest point End Pass type
(mag) Time Alt. Az. Time Alt. Az. Time Alt. Az.
12 Apr ? 19:31:34 10° N 19:34:15 14° NE 19:36:40 11° ENE visible
12 Apr ? 21:10:59 10° NNW 21:15:38 72° NE 21:15:38 72° NE visible
12 Apr ? 22:53:04 10° WNW 22:54:36 14° WNW 22:54:36 14° WNW visible
13 Apr ? 20:15:38 10° N 20:20:05 33° ENE 20:21:09 30° E visible
13 Apr ? 21:56:22 10° NW 22:00:06 35° W 22:00:06 35° W visible
14 Apr ? 19:20:43 10° N 19:23:57 17° NE 19:26:41 12° E visible
14 Apr ? 21:00:29 10° NNW 21:05:24 88° WSW 21:05:39 81° S visible
14 Apr ? 22:43:21 10° WNW 22:44:37 12° W 22:44:37 12° W visible
15 Apr ? 20:05:01 10° NNW 20:09:40 41° ENE 20:11:12 32° E visible
15 Apr ? 21:46:02 10° NW 21:50:10 29° W 21:50:10 29° W visible
16 Apr ? 19:09:57 10° N 19:13:37 21° NE 19:16:47 12° E visible
16 Apr ? 20:50:00 10° NNW 20:54:52 70° WSW 20:55:45 56° SSW visible
17 Apr ? 19:54:25 10° NNW 19:59:12 51° ENE 20:01:22 30° ESE visible
17 Apr ? 21:35:47 10° NW 21:39:36 23° W 21:40:20 22° WSW visible
18 Apr ? 18:59:13 10° N 19:03:15 25° NE 19:07:00 11° ESE visible
18 Apr ? 20:39:32 10° NNW 20:44:18 55° WSW 20:45:58 36° SSW visible
19 Apr ? 19:43:51 10° NNW 19:48:43 65° ENE 19:51:38 24° SE visible
19 Apr ? 21:25:37 10° NW 21:28:55 18° W 21:30:37 16° WSW visible
20 Apr ? 18:48:32 10° N 18:52:50 30° NE 18:57:07 10° ESE visible
20 Apr ? 20:29:06 10° NW 20:33:42 43° WSW 20:36:19 23° SSW visible
21 Apr ? 19:33:17 10° NNW 19:38:11 81° ENE 19:42:04 16° SSE visible
21 Apr ? 21:15:38 10° WNW 21:18:13 14° W 21:20:47 10° SW visible
